Location: Newark
(42.9858°N, 0.6717°E)
Time: 11:18:11
(UTC+00:00)

S-56A Canister/Altair - Pass Details

Date: 22 November 2019
Orbit: 633 x 2499 km, 38.9° (Epoch: 06 December)

Event Time Altitude Azimuth Distance (km) Brightness Sun altitude
Rises 13:37:36 0° 204° (SSW) 6,034 13.6 21.6°
Reaches altitude 10° 13:42:47 10° 192° (SSW) 4,842 13.2 21.2°
Maximum altitude 13:52:27 25° 146° (SE) 3,273 11.2 20.2°
Drops below altitude 10° 14:00:02 10° 96° (E) 3,745 10.8 19.5°
Sets 14:03:23 0° 84° (E) 4,444 11.1 19.1°
